Theta_e
337 341 338 333 328 324 321 317 315 316 317 319 321 321 326 321 324 324 329 325 332 325 330 330 327 322 326 319 319 320 324 322 321
333 337 335 331 326 323 320 316 315 316 316 318 321 323 322 324 324 329 328 327 334 329 321 321 325 327 323 321 323 322 322 322 322
337 333 333 332 328 323 319 316 315 316 317 318 322 323 324 323 321 322 324 327 325 329 320 319 319 320 321 321 322 322 323 323 322
331 335 333 332 331 325 319 315 315 316 317 318 321 323 324 322 320 320 320 320 319 322 319 318 319 319 320 321 321 322 322 323 323
329 330 333 334 332 330 322 315 314 315 317 318 320 324 324 322 320 318 318 318 318 318 318 318 318 319 319 320 321 322 322 323 324
334 331 331 333 334 332 328 319 315 315 316 317 319 321 323 323 321 321 320 318 318 318 318 319 318 318 318 319 320 321 322 323 324
334 333 331 327 332 334 332 327 317 316 316 316 317 319 321 323 323 322 321 319 318 318 318 319 319 319 319 319 319 320 320 322 324
333 333 333 333 326 332 333 331 324 316 316 316 315 317 318 321 323 323 322 320 319 319 319 319 319 319 320 320 320 320 320 322 322
337 335 333 333 334 327 331 333 330 321 316 316 315 316 317 319 321 323 322 322 321 319 319 319 319 319 320 320 320 321 321 321 322
338 338 337 335 334 335 328 330 332 330 320 316 316 316 315 318 319 321 323 323 322 321 319 319 319 319 320 320 320 321 321 322 325
336 337 338 338 337 335 335 329 329 333 331 322 317 317 316 316 318 320 321 323 323 322 322 321 319 318 318 319 319 320 321 322 327
336 335 335 336 338 338 337 336 332 331 333 331 325 317 317 316 316 318 320 322 323 323 323 322 321 320 318 318 319 320 320 325 330
329 334 336 336 336 335 338 337 336 335 335 335 331 328 319 319 317 317 318 320 322 322 322 322 322 321 320 320 319 322 328 327 329
310 320 330 334 336 336 335 336 337 336 336 336 335 333 328 322 320 321 320 320 321 321 321 321 321 321 320 319 321 320 322 327 327
307 308 312 325 331 334 336 336 335 336 336 335 335 335 333 330 324 320 323 323 323 323 323 322 321 321 321 320 320 321 321 321 322
308 308 306 309 321 328 334 337 335 335 334 336 336 335 335 333 332 329 325 325 324 324 324 323 323 321 321 321 321 320 322 322 321
309 309 308 307 307 315 328 330 338 332 334 334 335 333 335 335 334 333 332 330 327 325 324 325 325 323 322 321 321 321 320 322 323
310 309 309 308 307 306 310 326 328 334 330 333 334 332 332 333 333 333 332 333 332 330 328 325 324 324 323 322 323 322 321 320 323
311 310 309 309 308 307 306 309 322 328 330 333 331 333 333 332 331 331 331 331 332 331 330 328 326 325 324 323 323 323 322 322 322
312 311 309 309 309 307 306 306 308 318 327 328 330 330 330 330 331 329 329 328 328 329 327 328 330 328 325 324 324 324 323 323 323
Wind_Speed
6 11 8 3 1 1 1 1 1 2 2 4 5 8 9 9 11 10 8 7 7 7 10 11 11 11 13 14 11 12 14 16 16
4 6 4 2 1 1 0 1 2 2 1 3 4 6 7 7 8 9 8 10 6 4 7 9 9 9 10 11 12 12 14 13 13
5 6 6 4 2 1 1 2 3 3 2 2 3 5 5 4 5 5 5 6 7 3 5 5 6 7 8 9 10 11 11 12 13
8 8 7 6 4 3 3 3 4 5 4 2 2 4 3 2 4 4 3 4 4 4 2 3 4 5 6 6 7 8 8 9 10
9 9 9 9 7 5 4 4 5 7 7 5 3 4 3 3 3 4 3 3 3 2 1 1 2 2 3 3 3 4 6 7 8
11 11 11 10 10 8 6 6 7 8 9 9 7 6 5 4 4 3 3 2 2 2 1 1 1 1 1 1 1 1 3 4 5
14 13 13 13 13 13 11 9 10 11 11 12 11 9 8 7 6 4 3 3 3 3 3 3 3 3 2 2 2 2 2 3 4
16 16 16 16 17 16 15 13 12 13 13 14 14 13 11 10 8 8 6 5 5 4 5 5 5 5 5 4 4 4 4 4 4
20 20 19 19 19 19 18 17 15 14 16 16 16 16 15 13 11 10 10 8 7 7 7 7 7 7 7 7 7 7 6 6 6
22 22 22 22 22 22 21 21 20 18 17 18 18 18 18 18 15 14 12 11 10 10 9 10 10 9 9 9 9 8 8 8 8
23 25 26 25 25 25 24 24 24 22 21 20 21 20 21 21 20 18 16 15 14 13 12 12 12 12 12 12 11 11 10 9 9
26 28 27 27 29 28 28 28 27 26 25 24 23 23 23 25 24 22 20 19 18 17 15 14 14 15 15 15 14 13 12 11 13
28 28 26 25 28 30 31 31 33 31 30 28 26 25 25 26 26 26 25 23 21 20 19 18 17 17 16 17 17 15 15 13 14
32 32 31 28 26 27 29 32 33 36 36 32 29 27 27 28 28 28 28 26 25 23 22 21 20 20 19 19 18 17 16 15 16
33 36 35 32 32 27 30 30 32 32 35 35 33 30 29 28 29 30 31 30 29 27 25 23 23 22 22 22 20 19 18 18 17
31 34 37 37 35 34 27 31 30 31 31 35 35 34 33 32 31 31 32 33 32 31 30 28 25 25 24 23 22 21 20 20 20
31 32 33 37 38 37 36 30 32 33 31 30 31 25 32 35 34 33 34 36 34 34 33 32 30 29 28 27 25 24 23 22 21
33 32 32 32 35 39 38 36 32 32 33 33 28 11 13 23 29 35 34 35 36 35 35 34 34 33 32 30 29 28 26 25 24
33 32 32 33 34 36 39 39 37 35 30 31 34 35 34 21 21 23 23 23 27 29 31 30 33 36 35 34 33 30 28 27 26
31 29 30 31 32 34 35 37 40 38 35 37 28 36 33 36 38 28 26 27 21 22 23 25 25 25 28 32 33 33 31 29 28
Wind_Direction
132 146 150 154 117 19 37 86 142 120 79 64 93 118 115 113 116 115 100 97 80 68 97 98 88 84 96 97 94 81 72 72 71
171 185 198 206 207 250 293 198 196 169 122 78 98 121 122 121 121 136 133 111 118 58 88 95 103 100 91 90 87 79 77 72 70
200 213 223 224 235 273 277 235 213 199 186 131 111 132 120 110 128 144 163 149 145 125 76 66 78 84 88 89 82 77 70 67 63
233 237 235 238 245 260 264 253 225 215 213 203 144 158 145 118 127 142 141 150 169 186 74 73 72 79 86 88 79 76 70 65 58
241 240 240 241 243 247 255 255 236 227 231 234 209 188 182 153 137 138 128 153 164 170 170 83 77 74 80 84 80 70 64 59 54
250 248 247 247 248 249 257 260 250 239 234 239 236 225 216 202 183 165 157 184 218 224 218 284 344 358 12 29 16 29 41 43 40
256 251 250 251 249 248 251 251 246 245 242 242 241 238 231 222 219 221 217 206 227 258 268 277 288 291 300 308 303 310 336 356 3
259 257 252 253 251 249 250 254 252 251 247 244 246 242 239 230 231 231 233 228 231 251 266 271 277 283 288 292 296 304 312 320 330
262 261 259 258 257 254 253 254 255 249 248 247 247 246 244 240 239 236 239 239 243 247 259 267 272 278 283 283 286 294 298 299 309
259 261 262 262 259 259 256 255 255 252 248 249 246 249 247 246 244 242 244 245 248 251 255 265 269 272 275 278 279 282 287 290 299
263 261 261 261 262 262 262 260 256 255 254 250 251 250 250 249 249 246 245 248 250 254 257 264 268 271 274 275 276 275 278 282 290
259 262 262 262 263 263 262 263 260 254 252 251 250 250 251 248 251 252 252 251 252 253 258 261 268 272 273 275 275 278 274 280 288
260 258 254 262 264 265 266 260 261 260 255 251 253 253 253 253 249 253 255 255 255 256 259 263 267 271 272 273 272 265 268 265 276
257 258 257 254 260 263 266 269 264 262 262 261 258 253 256 256 253 253 255 256 257 256 258 262 264 267 268 268 271 274 270 264 263
260 256 257 255 253 261 264 264 269 272 265 268 263 261 255 258 254 254 255 256 257 258 260 261 263 266 266 266 266 267 269 270 272
269 265 259 255 253 250 258 263 268 272 273 276 266 261 256 254 256 255 255 256 258 260 259 261 262 262 264 265 264 265 268 271 271
269 264 261 258 255 252 249 251 256 263 267 268 276 263 263 255 256 258 262 263 261 261 261 263 264 264 264 264 265 264 267 270 273
271 264 262 257 254 253 250 246 250 254 261 264 256 252 246 269 264 261 258 265 267 265 266 265 266 266 267 266 264 263 264 267 269
276 266 260 258 252 251 250 247 246 248 256 256 251 262 259 256 270 265 262 266 266 268 267 270 269 269 268 268 268 267 264 266 268
279 266 258 258 256 250 250 249 245 245 251 252 266 254 258 260 258 266 262 264 267 267 268 275 273 275 276 271 269 267 266 265 265